Vorticity
1 4 8 8 9 9 7 5 4 5 6 7 8 8 7 5 7 7 4 6 9 13 14 12 8 8 8 7 9 11 11 8 10 10 7 9 9 8 11 9 5 5 5 3 4
4 -2 1 6 7 9 8 10 8 7 5 5 7 8 10 10 8 6 12 17 12 4 4 6 8 8 9 9 10 13 7 16 -1 2 7 8 7 5 9 7 7 6 7 5 6
4 6 6 7 8 9 5 5 4 2 6 9 11 12 13 13 17 30 15 1 -1 3 9 12 11 10 9 9 9 8 10 -2 9 8 9 8 9 7 6 7 6 5 6 7 6
4 2 8 1 9 7 5 4 4 5 1 5 6 8 10 9 18 -8 -1 3 9 12 10 10 11 12 11 9 9 7 7 8 8 8 10 9 6 5 4 9 9 3 9 6 4
1 2 7 -1 13 9 7 1 2 5 6 3 4 9 5 7 7 12 15 16 11 9 8 11 11 10 13 10 5 9 6 4 2 6 3 2 5 7 6 5 7 11 7 7 4
6 -4 14 0 3 9 7 4 7 -0 7 6 4 5 9 1 12 9 14 9 5 7 10 10 7 7 6 8 -6 -10 10 11 7 7 2 3 12 10 4 5 12 14 7 2 6
-3 6 3 11 -8 9 9 3 -0 2 7 7 7 0 9 21 13 13 12 12 11 8 4 1 -2 -5 -7 1 14 -12 2 16 8 10 4 13 16 19 15 7 18 4 2 7 1
6 -1 2 12 -7 10 10 7 6 6 8 1 10 4 17 11 11 4 7 11 11 8 5 5 4 10 9 2 -2 6 26 31 7 18 14 6 -10 3 10 6 8 3 8 1 -1
9 9 8 3 -2 13 10 10 7 5 7 7 5 21 12 -2 -5 14 12 7 2 7 9 9 10 8 5 10 35 11 3 2 10 4 6 13 -4 -3 -2 11 15 8 3 -3 5
9 10 9 -0 12 13 6 10 14 5 5 11 31 -10 -0 -4 27 15 17 10 8 15 20 22 25 21 29 29 2 22 -1 7 2 -2 -1 2 12 13 7 16 1 7 -2 4 9
12 13 14 8 6 7 11 16 4 12 16 -8 -2 3 15 29 7 14 3 12 12 13 25 13 31 17 6 8 5 -1 5 7 7 1 14 18 -4 16 14 11 12 -2 1 6 10
12 13 14 10 7 10 13 11 -1 -9 11 -10 6 18 28 13 -1 11 8 20 7 10 -3 3 6 3 10 6 10 11 8 15 21 14 0 7 7 21 44 28 -4 -2 5 11 16
12 12 12 14 17 10 -15 23 -1 1 6 27 36 34 20 3 3 -1 14 10 7 11 9 5 -1 3 6 14 14 11 10 9 1 -6 21 22 44 17 1 -12 -6 4 6 13 8
12 13 12 12 11 17 -8 8 7 23 40 16 21 31 8 1 21 -9 23 7 12 6 3 22 9 7 11 9 11 21 2 0 7 26 3 -10 3 9 10 -6 -4 7 8 12 5
13 12 11 14 9 13 12 12 -15 19 16 14 22 9 -1 4 -3 23 11 8 8 3 8 4 1 3 14 7 -2 -4 3 15 13 12 13 17 7 9 16 -15 10 9 14 8 6
12 14 13 11 10 0 8 41 31 24 12 7 9 8 -4 -5 9 6 11 12 11 13 16 4 5 8 6 -0 5 -5 12 15 32 18 15 15 1 17 -11 -1 10 6 14 7 9
11 12 15 14 12 9 13 -7 17 9 8 -16 -3 17 3 -6 8 18 1 14 6 8 20 16 17 6 5 0 18 15 7 18 13 7 10 11 11 -5 -23 11 4 9 11 7 14
10 13 12 14 11 15 9 28 13 1 -5 -3 9 6 -2 1 25 2 11 22 16 18 2 12 13 16 10 12 -0 5 16 3 11 11 -1 15 11 8 -27 8 7 13 7 7 13
8 10 14 10 13 16 18 19 -9 6 2 1 -1 26 30 21 1 15 12 6 15 11 4 3 14 14 7 2 13 4 13 4 7 14 11 16 7 19 -3 3 7 15 8 8 12
7 9 8 15 17 7 -1 1 -3 -4 -10 -11 18 5 1 -6 16 12 19 7 9 11 12 13 10 21 15 15 12 11 6 6 8 10 17 12 11 1 -17 10 8 17 7 8 12
7 10 11 14 14 17 10 -1 -0 9 19 17 7 -5 -7 4 17 17 8 -3 16 9 15 5 7 -3 6 15 -2 7 12 9 12 7 8 9 11 -8 -2 9 9 14 6 8 11
7 10 6 7 11 10 19 15 12 5 11 13 2 18 24 3 2 20 4 -2 -3 3 6 17 7 5 1 3 -1 12 3 5 8 12 10 4 9 -14 5 10 9 12 7 8 9
8 7 17 9 10 8 5 4 4 16 16 17 11 -20 -2 -11 11 7 7 6 15 13 12 12 12 11 24 21 23 12 11 12 9 17 17 10 2 -5 11 9 11 10 7 9 11
11 10 -5 12 20 15 9 5 11 2 18 15 -1 10 13 16 20 -1 -5 1 7 16 12 6 10 -12 -16 -8 -7 7 8 8 8 6 10 -3 -11 -6 8 9 13 8 7 8 12
6 8 8 -9 -3 5 13 1 1 14 11 3 9 3 14 14 5 17 19 30 17 17 17 5 3 16 13 3 1 7 12 9 9 2 3 -4 -3 16 10 9 14 8 7 7 15
8 13 10 6 6 6 10 12 2 2 -13 8 10 -4 5 9 12 9 13 23 20 17 28 12 -6 19 20 28 2 5 1 6 9 11 13 23 17 7 10 8 15 7 7 6 16
6 10 7 7 8 9 8 9 -3 3 20 5 -0 3 -3 20 16 15 19 15 -0 6 23 6 13 7 12 14 16 42 43 34 26 5 15 10 4 9 9 10 15 7 7 4 16
Height
3121 3118 3116 3114 3111 3108 3105 3102 3100 3097 3094 3092 3090 3088 3086 3084 3081 3079 3077 3076 3074 3072 3071 3070 3070 3069 3068 3067 3066 3066 3066 3063 3063 3060 3058 3056 3055 3054 3055 3055 3055 3054 3053 3049 3048
3119 3116 3113 3110 3108 3105 3102 3100 3097 3095 3092 3090 3087 3085 3082 3080 3077 3075 3073 3071 3070 3069 3068 3067 3066 3065 3064 3063 3062 3062 3061 3061 3057 3055 3053 3052 3053 3049 3051 3049 3049 3048 3046 3044 3043
3116 3114 3111 3109 3107 3103 3100 3098 3095 3094 3091 3087 3084 3082 3078 3076 3073 3069 3068 3068 3067 3066 3065 3063 3062 3061 3060 3059 3058 3056 3056 3054 3053 3052 3050 3048 3048 3046 3045 3045 3043 3042 3040 3038 3036
3113 3111 3109 3107 3104 3102 3099 3097 3094 3091 3089 3085 3082 3079 3076 3073 3074 3068 3066 3064 3063 3062 3061 3060 3058 3058 3058 3056 3054 3054 3051 3050 3049 3047 3046 3045 3043 3042 3040 3040 3037 3035 3034 3032 3031
3111 3108 3106 3104 3101 3099 3097 3095 3091 3089 3086 3083 3080 3077 3073 3070 3067 3063 3061 3060 3059 3058 3057 3057 3055 3055 3054 3052 3051 3049 3047 3047 3044 3042 3041 3039 3039 3036 3034 3034 3033 3031 3028 3027 3022
3107 3104 3102 3100 3098 3095 3093 3090 3088 3085 3082 3079 3076 3073 3070 3067 3063 3059 3058 3057 3055 3054 3053 3052 3052 3051 3050 3049 3048 3045 3044 3042 3040 3039 3035 3033 3034 3031 3031 3028 3027 3025 3023 3019 3018
3102 3100 3098 3096 3094 3091 3089 3086 3084 3081 3078 3076 3072 3069 3066 3064 3058 3056 3053 3052 3051 3050 3049 3048 3048 3048 3046 3044 3041 3040 3039 3036 3033 3033 3031 3031 3029 3024 3024 3023 3023 3019 3017 3014 3012
3097 3094 3092 3091 3089 3087 3084 3081 3080 3077 3075 3072 3069 3065 3062 3059 3055 3053 3050 3048 3046 3044 3044 3043 3043 3041 3040 3039 3037 3037 3034 3033 3029 3029 3027 3027 3024 3020 3021 3020 3017 3014 3012 3009 3005
3091 3089 3087 3086 3084 3081 3079 3076 3075 3073 3071 3068 3066 3062 3058 3056 3054 3049 3047 3045 3042 3041 3038 3037 3036 3035 3034 3033 3032 3032 3030 3029 3029 3026 3023 3023 3020 3017 3014 3012 3011 3010 3007 3003 2996
3085 3083 3081 3080 3077 3076 3074 3072 3069 3068 3066 3064 3061 3062 3056 3053 3049 3046 3044 3041 3039 3036 3033 3031 3030 3028 3028 3026 3028 3029 3028 3028 3026 3021 3019 3017 3013 3014 3009 3006 3007 3005 3001 2995 2989
3079 3077 3076 3074 3072 3071 3070 3068 3067 3064 3060 3060 3060 3056 3052 3050 3047 3044 3042 3039 3037 3035 3032 3028 3028 3026 3029 3026 3025 3027 3026 3024 3023 3017 3014 3011 3009 3008 3005 3005 3004 3001 2995 2989 2985
3073 3071 3070 3068 3067 3066 3064 3062 3062 3061 3053 3050 3051 3048 3046 3046 3044 3041 3039 3037 3034 3035 3033 3030 3029 3026 3025 3024 3023 3023 3022 3021 3018 3013 3011 3008 3005 3002 3000 3001 3000 2995 2988 2983 2976
3068 3066 3065 3063 3062 3062 3058 3059 3056 3056 3051 3045 3043 3041 3042 3043 3041 3038 3036 3033 3031 3031 3032 3031 3029 3025 3025 3023 3021 3021 3019 3018 3017 3011 3009 3006 3000 2999 2999 2998 2997 2992 2987 2980 2970
3063 3062 3060 3059 3060 3058 3056 3054 3052 3052 3049 3043 3039 3038 3040 3039 3038 3035 3032 3033 3029 3028 3028 3029 3024 3024 3023 3022 3019 3017 3016 3014 3012 3011 3011 3008 3004 2997 2997 2997 2996 2989 2982 2975 2967
3060 3058 3056 3054 3053 3053 3053 3050 3049 3050 3049 3044 3039 3039 3039 3039 3037 3032 3030 3028 3026 3025 3027 3027 3023 3021 3021 3020 3018 3017 3013 3011 3008 3008 3008 3006 3007 2995 2995 2995 2992 2985 2980 2972 2963
3057 3056 3053 3052 3051 3049 3048 3047 3047 3048 3040 3039 3037 3038 3037 3035 3033 3029 3027 3026 3024 3021 3021 3022 3021 3020 3019 3017 3016 3015 3012 3008 3005 3007 3006 3002 3004 2996 2994 2992 2988 2982 2976 2968 2959
3054 3052 3051 3048 3049 3047 3047 3047 3050 3044 3041 3038 3036 3037 3035 3034 3031 3028 3025 3024 3023 3020 3019 3019 3017 3016 3016 3015 3014 3013 3012 3008 3005 3004 2998 3000 3001 2994 2993 2989 2983 2977 2973 2966 2957
3051 3049 3049 3045 3046 3044 3045 3048 3048 3041 3039 3036 3035 3033 3035 3033 3030 3027 3024 3021 3019 3018 3018 3018 3015 3014 3015 3014 3014 3012 3012 3011 3005 2997 2998 2999 2997 2994 2992 2985 2981 2977 2971 2963 2957
3047 3047 3045 3042 3043 3043 3043 3046 3043 3041 3038 3035 3033 3031 3031 3030 3030 3026 3022 3019 3018 3016 3018 3017 3015 3013 3013 3012 3014 3011 3010 3011 3008 3004 3003 2994 2995 2993 2991 2987 2981 2976 2972 2964 2955
3045 3044 3043 3040 3040 3040 3041 3042 3041 3038 3036 3033 3033 3031 3031 3029 3028 3025 3021 3017 3016 3015 3014 3015 3015 3011 3011 3011 3011 3010 3011 3010 3008 3004 2995 2990 2992 2991 2989 2984 2979 2975 2969 2963 2956
3042 3041 3041 3040 3039 3038 3038 3038 3037 3033 3032 3031 3029 3028 3027 3027 3025 3023 3019 3016 3014 3013 3012 3013 3015 3012 3010 3009 3009 3009 3008 3008 3008 3007 3003 2993 2990 2990 2988 2983 2979 2974 2969 2962 2957
3038 3038 3038 3038 3037 3035 3034 3034 3033 3030 3029 3027 3026 3025 3023 3022 3020 3019 3015 3013 3012 3011 3011 3012 3011 3010 3009 3008 3007 3006 3006 3006 3007 3007 3005 3003 2994 2990 2987 2983 2979 2975 2969 2965 2959
3034 3034 3034 3034 3033 3033 3031 3031 3029 3027 3026 3024 3024 3023 3022 3020 3020 3014 3012 3009 3008 3008 3008 3009 3009 3009 3005 3007 3004 3004 3004 3004 3004 3004 3002 3001 2993 2989 2986 2982 2980 2975 2971 2967 2962
3031 3030 3030 3030 3030 3030 3029 3027 3026 3026 3024 3023 3022 3021 3019 3017 3017 3013 3009 3008 3005 3006 3006 3008 3007 3006 3005 3004 3004 3003 3002 3001 3002 3003 2999 2996 2993 2989 2987 2983 2980 2976 2974 2969 2965
3027 3026 3027 3027 3026 3026 3026 3024 3024 3023 3023 3021 3019 3019 3018 3015 3012 3009 3007 3004 3003 3003 3003 3005 3004 3003 3003 3002 3001 3000 2999 2998 2998 2998 2997 2993 2992 2989 2987 2984 2981 2978 2975 2972 2968
3022 3023 3022 3023 3023 3023 3022 3021 3021 3021 3021 3019 3018 3016 3014 3012 3011 3007 3005 3003 3001 3000 3000 3001 3002 3001 3000 3000 2999 2995 2995 2993 2993 2993 2992 2991 2990 2989 2987 2984 2981 2979 2977 2974 2970
3017 3018 3018 3017 3018 3019 3019 3018 3017 3018 3018 3017 3014 3012 3009 3007 3005 3002 3000 2999 2998 2998 2998 3000 3001 3002 2999 2997 2997 2994 2989 2988 2989 2989 2990 2990 2989 2988 2987 2984 2982 2980 2978 2976 2973